FENGYUN 1C DEB, 32334

Orbit data source: Space-Track

FENGYUN 1C DEB, 32334 is space debris in SSO originally from a launch on Mon, 10 May 1999 UTC launched from the Taiyaun Space Center, China (TSC). Fengyun 1C debris stems from the Chinese weather satellite Fengyun-1C, which was intentionally destroyed by a Chinese anti-satellite missile in 2007. This event dramatically increased the amount of space debris, with thousands of trackable fragments posing hazards to satellites and human spaceflight. The Fengyun 1C debris cloud has become a focal point in discussions about space sustainability and the need for international regulations to prevent the creation of new debris.

Loading next visibility...
Identifier
32334, 1999-025CYB
Orbit
SSO
Country
Flag of CNCN / PRC
Related business
Manufacturer
Unknown
Mission
Spacecraft
Bus & Motor
Unknown
Mass
Unknown
Launch date (UTC)
1999-05-10 (27 years ago)
Launch vehicle
Unknown
Launch site
Taiyaun Space Center, China (TSC)
Object type
Payload
Rocket body
Debris
Shape & HBR
Unknown shape, 0.1 m
Radar Cross Section
Small (<0.1 m²)

Expand to show TLE details & history
Last TLE update: 6 days ago

TLE from 6 days ago
0 FENGYUN 1C DEB
1 32334U 99025CYB 26249.13145451  .00000060  00000-0  68566-4 0  9998
2 32334  99.2221 311.8714 0066522 264.8112  94.5459 14.01948588976862
Epoch: 2026-09-06T03:09Z
TLE epoch observation values (Epoch: 2026-09-06T03:09:17.669Z)
Latitude
-0.00002°
Longitude
-80.68319°
Altitude
894.079 km
Speed
7.403 km/s
True Right ascension
20h 47m 29s
True Declination
0° 00' 00"
Sunlit
Object was in full shadow at epoch
Visualization orbit readout
Latitude
Unknown
Longitude
Unknown
Altitude
Unknown
Speed
Unknown
Apparent Right ascension
Unknown
Apparent Declination
Unknown
Sunlit
N/A
Visualization observer readout
Local Sidereal Time
03:49:35
Azimuth
Unknown
Elevation
Unknown
Doppler factor
Unknown
Orbital elements
Apogee altitude
932.574 km
Perigee altitude
835.952 km
Semi-major axis
7,262.4 km
Eccentricity
0.00665
Inclination
99.2221°
RAAN
311.8714°
Arg. of periapsis
264.8112°
True anomaly
95.30527°
Mean anomaly
94.5459°
Eccentric anomaly
94.92564°
Mean motion
3.5069 °/min
Orbital period
102.65 mins
BSTAR
0.000068566
Loading maneuver chart data...
Computing Atmospheric mass density...
Loading historical data...
Loading historical data...
Loading historical data...
Loading historical data...
Loading historical data...
Loading historical data...
Loading historical data...

Documentation

Showing up to 5 results
|